Location: Karlsruhe
(49.0131°N, 8.3874°E)
Time: 13:41:14
(UTC+01:00)

ISS - Pass Details

Date: 11 January 2018
Orbit: 402 x 407 km, 51.6° (Epoch: 21 January)

Event Time Altitude Azimuth Distance (km) Brightness Sun altitude
Exits shadow 07:13:43 14° 275° (W) 1,234 -2.0 -10.1°
Maximum altitude 07:16:06 34° 213° (SSW) 691 -2.8 -9.8°
Drops below altitude 10° 07:19:06 10° 147° (SSE) 1,463 -0.1 -9.3°
Sets 07:21:17 0° 138° (SE) 2,320 1.4 -9.0°
